FW4803 Weather Reports


Display with metric or nautical units.
time (UTC)temp
F
wind
direction
speed
MPH
gust
MPH
rain 1hr
in
rain 24hr
in
rain mn
in
humidity
%
barometer
mb
20260506113510 76 199 7.0 11.0 0.00 0.00 0.00 32 1016.2
20260506113010 76 181 7.0 11.0 0.00 0.00 0.00 32 1016.4
20260506112011 76 192 7.0 9.0 0.00 0.00 0.00 32 1016.3
20260506110510 76 223 6.0 8.0 0.00 0.00 0.00 32 1016.3
20260506110010 76 244 5.0 8.0 0.00 0.00 0.00 32 1016.4
20260506105511 77 244 5.0 5.0 0.00 0.00 0.00 32 1016.4
20260506104510 76 216 4.0 6.0 0.00 0.00 0.00 32 1016.5
20260506104011 76 203 4.0 5.0 0.00 0.00 0.00 32 1016.5
20260506103511 76 220 5.0 7.0 0.00 0.00 0.00 33 1016.4
20260506103010 75 208 6.0 7.0 0.00 0.00 0.00 34 1016.5
20260506102010 76 248 5.0 6.0 0.00 0.00 0.00 34 1016.6
20260506101510 75 251 4.0 8.0 0.00 0.00 0.00 35 1016.6
20260506101011 75 247 5.0 8.0 0.00 0.00 0.00 34 1016.6
20260506100510 75 263 5.0 7.0 0.00 0.00 0.00 34 1016.5
20260506100010 75 236 4.0 7.0 0.00 0.00 0.00 34 1016.5
20260506095510 75 201 5.0 7.0 0.00 0.00 0.00 34 1016.6
20260506094510 75 235 6.0 8.0 0.00 0.00 0.00 33 1016.6
20260506094010 75 252 5.0 7.0 0.00 0.00 0.00 33 1016.6
20260506093010 74 153 5.0 8.0 0.00 0.00 0.00 34 1016.6
20260506092510 74 175 5.0 8.0 0.00 0.00 0.00 33 1016.7
20260506092010 74 194 4.0 5.0 0.00 0.00 0.00 33 1016.7
20260506091510 74 209 4.0 5.0 0.00 0.00 0.00 34 1016.8
20260506091010 74 185 5.0 10.0 0.00 0.00 0.00 34 1016.7
20260506090510 74 173 5.0 10.0 0.00 0.00 0.00 34 1016.7
20260506085510 74 210 3.0 4.0 0.00 0.00 0.00 34 1016.8
20260506084010 73 261 4.0 6.0 0.00 0.00 0.00 34 1016.6
20260506083510 73 254 4.0 5.0 0.00 0.00 0.00 34 1016.7
20260506083010 72 254 4.0 5.0 0.00 0.00 0.00 37 1016.6
20260506082510 72 263 4.0 5.0 0.00 0.00 0.00 38 1016.7
20260506082011 72 247 5.0 8.0 0.00 0.00 0.00 39 1016.6
20260506081510 72 178 5.0 8.0 0.00 0.00 0.00 40 1016.6
20260506081010 72 187 4.0 7.0 0.00 0.00 0.00 41 1016.7
20260506073510 71 224 3.0 4.0 0.00 0.00 0.00 43 1016.4
20260506073010 71 147 3.0 5.0 0.00 0.00 0.00 42 1016.2
20260506072510 70 128 5.0 5.0 0.00 0.00 0.00 42 1016.2
20260506072010 69 130 5.0 6.0 0.00 0.00 0.00 42 1016.2
20260506071510 69 155 3.0 6.0 0.00 0.00 0.00 41 1016.3
20260506071011 70 190 2.0 3.0 0.00 0.00 0.00 43 1016.3
20260506070510 70 190 2.0 3.0 0.00 0.00 0.00 42 1016.1
20260506062510 67 119 3.0 5.0 0.00 0.00 0.00 45 1016.3
20260506061010 66 150 3.0 4.0 0.00 0.00 0.00 45 1016.2
20260506060510 66 151 3.0 4.0 0.00 0.00 0.00 46 1016.0
20260506051009 63 155 3.0 4.0 0.00 0.00 0.00 55 1015.7
20260506050510 63 125 3.0 4.0 0.00 0.00 0.00 53 1015.8
20260506045012 62 97 3.0 3.0 0.00 0.00 0.00 57 1015.7
20260506044510 62 101 2.0 3.0 0.00 0.00 0.00 57 1015.5
20260506043509 61 96 3.0 4.0 0.00 0.00 0.00 58 1015.6
20260506043010 61 90 3.0 4.0 0.00 0.00 0.00 58 1015.5
20260506042510 60 105 3.0 4.0 0.00 0.00 0.00 58 1015.6
20260506042010 60 115 3.0 4.0 0.00 0.00 0.00 58 1015.6
20260506041011 60 91 3.0 4.0 0.00 0.00 0.00 59 1015.4
20260506040509 59 99 2.0 3.0 0.00 0.00 0.00 60 1015.4
20260506040010 59 104 2.0 3.0 0.00 0.00 0.00 60 1015.5
20260506035510 59 118 2.0 2.0 0.00 0.00 0.00 60 1015.4
20260506035010 59 131 2.0 3.0 0.00 0.00 0.00 60 1015.3
20260506034509 59 128 2.0 3.0 0.00 0.00 0.00 60 1015.2
20260506033509 60 103 2.0 3.0 0.00 0.00 0.00 60 1015.1
20260506033010 59 116 2.0 2.0 0.00 0.00 0.00 60 1015.1
20260506032510 60 135 1.0 2.0 0.00 0.00 0.00 60 1015.1
20260506032010 60 113 1.0 2.0 0.00 0.00 0.00 60 1015.1
20260506031509 59 90 2.0 2.0 0.00 0.00 0.00 62 1015.0
20260506031010 59 87 2.0 3.0 0.00 0.00 0.00 62 1015.0
20260506030510 59 94 3.0 4.0 0.00 0.00 0.00 62 1015.0
20260506030015 59 93 3.0 4.0 0.00 0.00 0.00 62 1015.0
20260506025510 59 91 3.0 4.0 0.00 0.00 0.00 63 1014.9
20260506025012 59 99 3.0 3.0 0.00 0.00 0.00 63 1014.9
20260506024510 59 94 3.0 3.0 0.00 0.00 0.00 63 1015.0
20260506024009 59 96 3.0 3.0 0.00 0.00 0.00 63 1015.0
20260506023509 59 99 3.0 3.0 0.00 0.00 0.00 63 1015.0
20260506023010 59 104 2.0 4.0 0.00 0.00 0.00 63 1015.0
20260506022509 59 120 2.0 4.0 0.00 0.00 0.00 62 1015.2
20260506022010 60 111 2.0 4.0 0.00 0.00 0.00 62 1015.0
20260506021510 60 96 2.0 3.0 0.00 0.00 0.00 61 1015.1
20260506020510 60 91 3.0 3.0 0.00 0.00 0.00 61 1015.1
20260506020010 61 94 3.0 3.0 0.00 0.00 0.00 60 1015.2
20260506014510 61 107 2.0 3.0 0.00 0.00 0.00 59 1015.3
20260506014009 61 109 2.0 2.0 0.00 0.00 0.00 60 1015.2
20260506013511 61 105 2.0 2.0 0.00 0.00 0.00 60 1015.2
20260506013011 61 106 2.0 2.0 0.00 0.00 0.00 61 1015.4
20260506012509 60 93 2.0 2.0 0.00 0.00 0.00 62 1015.2
20260506011509 60 116 2.0 3.0 0.00 0.00 0.00 62 1015.3
20260506011009 60 108 3.0 4.0 0.00 0.00 0.00 63 1015.3
20260506010510 60 90 3.0 4.0 0.00 0.00 0.00 63 1015.4
20260506010010 60 94 4.0 4.0 0.00 0.00 0.00 63 1015.3
20260506005509 60 90 3.0 4.0 0.00 0.00 0.00 63 1015.2
20260506005010 59 87 2.0 3.0 0.00 0.00 0.00 63 1015.4
20260506004509 60 111 2.0 3.0 0.00 0.00 0.00 62 1015.5
20260506004009 60 122 2.0 3.0 0.00 0.00 0.00 62 1015.3
20260506003513 60 110 2.0 3.0 0.00 0.00 0.00 62 1015.3
20260506003009 60 99 3.0 3.0 0.00 0.00 0.00 62 1015.5
20260506002509 60 88 3.0 3.0 0.00 0.00 0.00 62 1015.5
20260506001019 60 113 2.0 4.0 0.00 0.00 0.00 62 1015.5
20260506000511 60 108 2.0 4.0 0.00 0.00 0.00 62 1015.4
20260505235512 60 133 2.0 3.0 0.00 0.00 0.00 62 1015.5
20260505235010 61 135 2.0 3.0 0.00 0.00 0.00 61 1015.4
20260505234509 61 136 2.0 3.0 0.00 0.00 0.00 61 1015.5
20260505233510 61 102 1.0 2.0 0.00 0.00 0.00 59 1015.5
20260505233013 61 114 2.0 2.0 0.00 0.00 0.00 58 1015.7
20260505232510 61 118 1.0 2.0 0.00 0.00 0.00 58 1015.7
20260505231511 62 135 2.0 2.0 0.00 0.00 0.00 57 1015.7
20260505231009 62 135 2.0 2.0 0.00 0.00 0.00 57 1015.7
20260505230010 62 155 2.0 2.0 0.00 0.00 0.00 56 1015.8
20260505225509 62 160 1.0 2.0 0.00 0.00 0.00 56 1015.7
20260505225011 62 162 1.0 2.0 0.00 0.00 0.00 55 1015.8
20260505224510 62 181 0.0 1.0 0.00 0.00 0.00 54 1015.9
20260505224009 62 135 0.0 1.0 0.00 0.00 0.00 54 1015.7
20260505223009 62 260 0.0 2.0 0.00 0.00 0.00 55 1015.9
20260505222509 62 270 1.0 2.0 0.00 0.00 0.00 54 1015.9
20260505222010 62 270 0.0 2.0 0.00 0.00 0.00 54 1015.9
20260505221509 62 0 0.0 0.0 0.00 0.00 0.00 54 1015.9
20260505221010 62 270 0.0 1.0 0.00 0.00 0.00 54 1015.9
20260505220509 62 282 0.0 1.0 0.00 0.00 0.00 55 1015.9
20260505215511 62 341 1.0 2.0 0.00 0.00 0.00 55 1015.9
20260505214009 61 69 1.0 3.0 0.00 0.00 0.00 61 1015.9
20260505213509 61 67 2.0 3.0 0.00 0.00 0.00 62 1015.9
20260505213009 62 26 2.0 3.0 0.00 0.00 0.00 62 1015.9
20260505212509 61 340 2.0 3.0 0.00 0.00 0.00 62 1016.0
20260505212010 61 316 2.0 3.0 0.00 0.00 0.00 63 1016.1
20260505211509 61 275 2.0 2.0 0.00 0.00 0.00 64 1016.0
20260505211009 62 252 1.0 2.0 0.00 0.00 0.00 63 1016.1
20260505210509 63 0 0.0 0.0 0.00 0.00 0.00 61 1016.2
20260505210017 63 0 0.0 0.0 0.00 0.00 0.00 59 1016.1
20260505205510 63 0 0.0 0.0 0.00 0.00 0.00 60 1015.9
20260505205009 63 0 0.0 0.0 0.00 0.00 0.00 59 1015.9
20260505204510 63 0 0.0 0.0 0.00 0.00 0.00 60 1015.9
20260505203509 63 0 0.0 0.0 0.00 0.00 0.00 60 1016.0
20260505203009 63 0 0.0 0.0 0.00 0.00 0.00 61 1016.2
20260505202510 63 0 0.0 0.0 0.00 0.00 0.00 62 1016.2
20260505202009 63 0 0.0 0.0 0.00 0.00 0.00 62 1016.0
20260505201009 63 42 0.0 2.0 0.00 0.00 0.00 62 1016.1
20260505200010 63 75 0.0 1.0 0.00 0.00 0.00 62 1016.2
20260505195510 63 314 0.0 1.0 0.00 0.00 0.00 62 1016.1
20260505194009 64 314 0.0 2.0 0.00 0.00 0.00 54 1016.0
20260505193511 64 0 0.0 0.0 0.00 0.00 0.00 53 1016.1
20260505192509 64 237 0.0 2.0 0.00 0.00 0.00 52 1016.1
20260505192009 64 225 1.0 2.0 0.00 0.00 0.00 52 1016.1
20260505191510 64 151 1.0 2.0 0.00 0.00 0.00 51 1016.1
20260505190510 64 91 2.0 4.0 0.00 0.00 0.00 50 1016.0
20260505190010 64 76 3.0 4.0 0.00 0.00 0.00 51 1016.1
20260505185510 64 99 4.0 4.0 0.00 0.00 0.00 52 1016.0
20260505185010 64 123 3.0 4.0 0.00 0.00 0.00 52 1015.9
20260505184510 65 122 2.0 3.0 0.00 0.00 0.00 52 1015.8
20260505184009 65 130 2.0 2.0 0.00 0.00 0.00 52 1015.8
20260505182510 65 299 1.0 2.0 0.00 0.00 0.00 53 1015.8
20260505182008 65 296 1.0 2.0 0.00 0.00 0.00 52 1015.7
20260505181513 65 292 1.0 2.0 0.00 0.00 0.00 53 1015.7
20260505180509 66 131 2.0 3.0 0.00 0.00 0.00 51 1015.5
20260505180010 66 62 2.0 3.0 0.00 0.00 0.00 50 1015.6
20260505175509 66 62 2.0 3.0 0.00 0.00 0.00 50 1015.5
20260505175009 67 90 2.0 3.0 0.00 0.00 0.00 50 1015.5
20260505174510 67 95 2.0 4.0 0.00 0.00 0.00 48 1015.7
20260505174009 67 118 4.0 5.0 0.00 0.00 0.00 50 1015.4
20260505173518 67 124 4.0 5.0 0.00 0.00 0.00 49 1015.3
20260505173009 67 117 5.0 6.0 0.00 0.00 0.00 48 1015.1
20260505172509 68 125 4.0 6.0 0.00 0.00 0.00 47 1015.2
20260505172009 68 130 4.0 6.0 0.00 0.00 0.00 47 1015.2
20260505171509 68 119 6.0 8.0 0.00 0.00 0.00 44 1015.3
20260505171008 68 125 7.0 9.0 0.00 0.00 0.00 43 1015.4
20260505170009 69 115 7.0 9.0 0.00 0.00 0.00 42 1015.3
20260505165508 69 118 7.0 9.0 0.00 0.00 0.00 42 1015.3
20260505165009 69 130 8.0 11.0 0.00 0.00 0.00 42 1015.3
20260505164509 70 112 9.0 11.0 0.00 0.00 0.00 41 1015.4
20260505164009 70 109 8.0 10.0 0.00 0.00 0.00 42 1015.5
20260505163510 70 120 7.0 9.0 0.00 0.00 0.00 42 1015.5
20260505163009 70 124 8.0 11.0 0.00 0.00 0.00 41 1015.3
20260505162009 70 141 9.0 11.0 0.00 0.00 0.00 42 1015.3
20260505161509 70 132 11.0 14.0 0.00 0.00 0.00 42 1015.4
20260505161009 71 120 9.0 14.0 0.00 0.00 0.00 42 1015.3
20260505160509 72 121 7.0 10.0 0.00 0.00 0.00 42 1015.2
20260505152009 74 202 5.0 10.0 0.00 0.00 0.00 32 1015.2
20260505151509 74 246 5.0 7.0 0.00 0.00 0.00 27 1015.2
20260505151010 74 254 5.0 7.0 0.00 0.00 0.00 27 1015.0
20260505150509 74 239 4.0 7.0 0.00 0.00 0.00 27 1015.0
20260505140510 74 200 5.0 7.0 0.00 0.00 0.00 25 1015.3
20260505125009 73 221 6.0 8.0 0.00 0.00 0.00 25 1015.8
20260505124510 73 202 7.0 9.0 0.00 0.00 0.00 25 1015.9
20260505124008 73 182 8.0 9.0 0.00 0.00 0.00 25 1015.9
20260505123509 73 181 8.0 11.0 0.00 0.00 0.00 25 1015.9
20260505123011 73 158 8.0 12.0 0.00 0.00 0.00 26 1015.8
20260505122509 73 165 9.0 12.0 0.00 0.00 0.00 27 1015.9
20260505122008 72 192 9.0 11.0 0.00 0.00 0.00 27 1015.9
20260505121508 73 254 8.0 9.0 0.00 0.00 0.00 28 1016.0
20260505120508 73 284 7.0 8.0 0.00 0.00 0.00 28 1016.0
20260505120009 73 270 7.0 8.0 0.00 0.00 0.00 29 1016.2
20260505115509 73 261 7.0 9.0 0.00 0.00 0.00 30 1016.1
20260505115008 73 222 7.0 11.0 0.00 0.00 0.00 32 1016.0
20260505114509 72 246 7.0 11.0 0.00 0.00 0.00 32 1016.2
20260505114008 73 273 7.0 8.0 0.00 0.00 0.00 32 1016.2